Powrót do katalogu

GLOBALSTAR M032

AktywnyŁącznośćMEO
NORAD 25852·PAYLOAD·🇺🇸 United States

Wystrzelony Jul 10, 1999 z Cape Canaveral Space Force Station

Loading…

Następne Przeloty (najbliższe 24 godziny)

TLE

ŚwieżeSource: Space-Track

Epoka: Sep 14, 2026, 08:40 UTC

1 25852U 99037B   26257.36123229 -.00000069  00000-0 -85264-4 0  9996
2 25852  51.9940 275.9733 0012251 212.3254 147.6796 11.19074047185635

Śledź GLOBALSTAR M032 w czasie rzeczywistym z AllMySat

Download on the App Store